Weather History for Tacoma Narrows, WA

Change the Weather History Date:

Saturday, June 15, 2013

  Actual Average Record
Temperature  
Mean Temperature 17 °C -  
Max Temperature 24 °C 19 °C 23 °C (2013)
Min Temperature 11 °C 10 °C 7 °C (2008)
Degree Days  
Heating Degree Days 2    
Growing Degree Days 12 (Base 50)    
Moisture  
Dew Point 8 °C    
Average Humidity 61    
Maximum Humidity 83    
Minimum Humidity 41    
Precipitation  
Precipitation 0.00 mm - - ()
Sea Level Pressure  
Sea Level Pressure 1015 hPa    
Wind  
Wind Speed 10 km/h (NNE)    
Max Wind Speed 14 km/h    
Max Gust Speed -    
Visibility 16 kilometers    
Events      
Averages and records for this station are not official NWS values.
T = Trace of Precipitation, MM = Missing Value Source: NWS Daily Summary

Daily Weather History Graph

Daily Weather History Graph

Search for Another Location

Airport:

Trip Planner

Search our weather history database for the weather conditions in past years. The results will help you decide how hot, cold, wet, or windy it might be!

Date:

Astronomy

Jun. 15, 2013 Rise Set
Actual Time 5:13 AM PDT 9:08 PM PDT
Civil Twilight 4:33 AM PDT 9:48 PM PDT
Nautical Twilight 3:38 AM PDT 10:43 PM PDT
Astronomical Twilight 2:13 AM PDT 12:08 AM PDT
Moon 12:18 PM PDT (6/15) 12:23 AM PDT (6/15)
Length of Visible Light 17h 15m
Length of Day
15h 55m
Waxing Crescent, 40% of the Moon is Illuminated
Jun 15
Waxing Crescent
Jun 16
First Quarter
Jun 23
Full
Jun 29
Last Quarter
Jul 8
New

Hourly Weather History & Observations

Time (PDT) Temp. Dew Point Humidity Pressure Visibility Wind Dir Wind Speed Gust Speed Precip Events Conditions
12:53 AM 12.8 °C 8.9 °C 77% 1017.4 hPa 16.1 km NNE 13.0 km/h / 3.6 m/s - N/A   Clear
1:53 AM 12.2 °C 8.3 °C 77% 1016.7 hPa 16.1 km North 11.1 km/h / 3.1 m/s - N/A   Clear
2:53 AM 11.7 °C 8.3 °C 80% 1016.3 hPa 16.1 km NNE 7.4 km/h / 2.1 m/s - N/A   Clear
3:53 AM 11.1 °C 8.3 °C 83% 1015.9 hPa 16.1 km NNE 5.6 km/h / 1.5 m/s - N/A   Clear
4:53 AM 11.1 °C 7.8 °C 80% 1015.7 hPa 16.1 km North 14.8 km/h / 4.1 m/s - N/A   Clear
5:53 AM 11.1 °C 8.3 °C 83% 1015.5 hPa 16.1 km North 11.1 km/h / 3.1 m/s - N/A   Clear
6:53 AM 11.7 °C 8.3 °C 80% 1015.3 hPa 16.1 km North 9.3 km/h / 2.6 m/s - N/A   Clear
7:53 AM 12.8 °C 8.9 °C 77% 1015.4 hPa 16.1 km NNE 5.6 km/h / 1.5 m/s - N/A   Scattered Clouds
8:53 AM 13.9 °C 9.4 °C 74% 1015.4 hPa 16.1 km North 13.0 km/h / 3.6 m/s - N/A   Partly Cloudy
9:53 AM 16.1 °C 9.4 °C 64% 1015.1 hPa 16.1 km North 13.0 km/h / 3.6 m/s - N/A   Clear
10:53 AM 16.7 °C 9.4 °C 62% 1014.8 hPa 16.1 km Variable 9.3 km/h / 2.6 m/s - N/A   Clear
11:53 AM 17.8 °C 8.9 °C 56% 1014.6 hPa 16.1 km North 11.1 km/h / 3.1 m/s - N/A   Clear
12:53 PM 19.4 °C 8.9 °C 51% 1014.4 hPa 16.1 km North 13.0 km/h / 3.6 m/s - N/A   Clear
1:53 PM 21.7 °C 7.8 °C 41% 1014.0 hPa 16.1 km NNE 11.1 km/h / 3.1 m/s - N/A   Clear
2:53 PM 22.8 °C 8.9 °C 41% 1013.7 hPa 16.1 km NNE 9.3 km/h / 2.6 m/s - N/A   Clear
3:53 PM 22.8 °C 8.9 °C 41% 1013.5 hPa 16.1 km ENE 9.3 km/h / 2.6 m/s - N/A   Clear
4:53 PM 22.8 °C 8.9 °C 41% 1013.5 hPa 16.1 km NE 7.4 km/h / 2.1 m/s - N/A   Clear
5:53 PM 21.7 °C 8.9 °C 44% 1013.7 hPa 16.1 km ENE 7.4 km/h / 2.1 m/s - N/A   Clear
6:53 PM 21.7 °C 9.4 °C 45% 1013.8 hPa 16.1 km North 7.4 km/h / 2.1 m/s - N/A   Clear
7:53 PM 20.6 °C 8.9 °C 47% 1013.9 hPa 16.1 km North 5.6 km/h / 1.5 m/s - N/A   Clear
8:53 PM 19.4 °C 7.2 °C 45% 1014.2 hPa 16.1 km North 9.3 km/h / 2.6 m/s - N/A   Clear
9:53 PM 17.2 °C 7.8 °C 54% 1015.0 hPa 16.1 km Calm Calm - N/A   Clear
10:53 PM 17.2 °C 8.9 °C 58% 1015.8 hPa 16.1 km West 7.4 km/h / 2.1 m/s - N/A   Clear
11:53 PM 16.1 °C 7.8 °C 58% 1016.3 hPa 16.1 km WSW 13.0 km/h / 3.6 m/s - N/A   Clear